TimeCST,TemperatureF,Dew PointF,Humidity,Sea Level PressureIn,VisibilityMPH,Wind Direction,Wind SpeedMPH,Gust SpeedMPH,PrecipitationIn,Events,Conditions,WindDirDegrees,DateUTC
12:52 AM,39.9,28.0,63,29.95,10.0,SW,5.8,-,N/A,,Clear,230,2013-02-14 06:52:00
1:52 AM,39.0,28.9,67,29.96,10.0,SW,5.8,-,N/A,,Clear,220,2013-02-14 07:52:00
2:52 AM,37.9,28.9,70,29.95,10.0,SW,5.8,-,N/A,,Clear,230,2013-02-14 08:52:00
3:52 AM,35.1,28.9,78,29.95,10.0,SSW,5.8,-,N/A,,Clear,210,2013-02-14 09:52:00
4:52 AM,35.1,28.0,76,29.95,10.0,SW,3.5,-,N/A,,Clear,220,2013-02-14 10:52:00
5:52 AM,34.0,28.9,82,29.97,10.0,SSW,3.5,-,N/A,,Clear,210,2013-02-14 11:52:00
6:52 AM,33.1,28.0,82,30.00,10.0,West,4.6,-,N/A,,Clear,260,2013-02-14 12:52:00
7:52 AM,34.0,28.9,82,30.03,10.0,Calm,Calm,-,N/A,,Clear,0,2013-02-14 13:52:00
8:52 AM,39.9,30.9,70,30.06,10.0,North,3.5,-,N/A,,Clear,360,2013-02-14 14:52:00
9:52 AM,46.0,34.0,63,30.07,10.0,North,8.1,-,N/A,,Clear,10,2013-02-14 15:52:00
10:52 AM,50.0,33.1,52,30.08,10.0,NNE,6.9,-,N/A,,Clear,20,2013-02-14 16:52:00
11:52 AM,52.0,33.1,49,30.08,10.0,NNE,10.4,-,N/A,,Clear,20,2013-02-14 17:52:00
12:52 PM,54.0,33.1,45,30.07,10.0,NNE,8.1,-,N/A,,Clear,30,2013-02-14 18:52:00
1:52 PM,54.0,32.0,43,30.06,10.0,NNW,5.8,-,N/A,,Clear,340,2013-02-14 19:52:00
2:52 PM,55.0,32.0,42,30.06,10.0,NW,5.8,-,N/A,,Clear,310,2013-02-14 20:52:00
3:52 PM,55.0,32.0,42,30.07,10.0,NNW,10.4,-,N/A,,Clear,330,2013-02-14 21:52:00
4:52 PM,52.0,32.0,47,30.09,10.0,NNW,11.5,-,N/A,,Clear,340,2013-02-14 22:52:00
5:52 PM,50.0,32.0,50,30.12,10.0,North,6.9,-,N/A,,Overcast,350,2013-02-14 23:52:00
6:52 PM,48.0,33.1,56,30.14,10.0,NNW,8.1,-,N/A,,Overcast,330,2013-02-15 00:52:00
7:52 PM,48.0,28.9,48,30.17,10.0,NNW,11.5,-,N/A,,Overcast,330,2013-02-15 01:52:00
8:52 PM,48.0,27.0,44,30.19,10.0,NW,10.4,-,N/A,,Overcast,320,2013-02-15 02:52:00
9:52 PM,46.0,28.0,50,30.20,10.0,WNW,8.1,-,N/A,,Overcast,300,2013-02-15 03:52:00
10:52 PM,43.0,30.0,60,30.21,10.0,NW,8.1,-,N/A,,Scattered Clouds,310,2013-02-15 04:52:00
11:52 PM,43.0,28.0,56,30.23,10.0,NNW,11.5,-,N/A,,Overcast,330,2013-02-15 05:52:00